| time (UTC) | temp F | wind direction | speed MPH | gust MPH | rain 1hr in | rain 24hr in | rain mn in | humidity % | barometer mb |
| 20260903224311 | 67 | 230 | 5.0 | 10.0 | 0.00 | 0.00 | 0.00 | 92 | 1020.3 |
| 20260903223311 | 67 | 223 | 4.0 | 10.0 | 0.00 | 0.00 | 0.00 | 92 | 1020.4 |
| 20260903222311 | 68 | 223 | 7.0 | 11.0 | 0.00 | 0.00 | 0.00 | 91 | 1020.4 |
| 20260903220311 | 68 | 236 | 5.0 | 9.0 | 0.00 | 0.00 | 0.00 | 91 | 1020.6 |
| 20260903215311 | 68 | 241 | 5.0 | 9.0 | 0.00 | 0.00 | 0.00 | 91 | 1020.6 |
| 20260903214311 | 68 | 199 | 4.0 | 8.0 | 0.00 | 0.00 | 0.00 | 90 | 1020.8 |
| 20260903212311 | 69 | 252 | 5.0 | 9.0 | 0.00 | 0.00 | 0.00 | 90 | 1020.9 |
| 20260903211311 | 69 | 209 | 5.0 | 9.0 | 0.00 | 0.00 | 0.00 | 89 | 1020.9 |
| 20260903210311 | 69 | 212 | 4.0 | 8.0 | 0.00 | 0.00 | 0.00 | 89 | 1020.9 |
| 20260903205311 | 69 | 204 | 5.0 | 8.0 | 0.00 | 0.00 | 0.00 | 89 | 1021.0 |
| 20260903204311 | 69 | 243 | 5.0 | 8.0 | 0.00 | 0.00 | 0.00 | 89 | 1021.2 |
| 20260903203311 | 69 | 250 | 3.0 | 8.0 | 0.00 | 0.00 | 0.00 | 88 | 1021.3 |
| 20260903202311 | 70 | 194 | 3.0 | 6.0 | 0.00 | 0.00 | 0.00 | 88 | 1021.5 |
| 20260903201311 | 70 | 211 | 5.0 | 9.0 | 0.00 | 0.00 | 0.00 | 88 | 1021.4 |
| 20260903200311 | 70 | 234 | 5.0 | 9.0 | 0.00 | 0.00 | 0.00 | 87 | 1021.4 |
| 20260903195310 | 70 | 197 | 5.0 | 9.0 | 0.00 | 0.00 | 0.00 | 87 | 1021.3 |
| 20260903194310 | 70 | 321 | 6.0 | 12.0 | 0.00 | 0.00 | 0.00 | 87 | 1021.3 |
| 20260903193310 | 71 | 225 | 5.0 | 10.0 | 0.00 | 0.00 | 0.00 | 86 | 1021.3 |
| 20260903192311 | 71 | 214 | 4.0 | 9.0 | 0.00 | 0.00 | 0.00 | 86 | 1021.2 |
| 20260903191310 | 72 | 219 | 4.0 | 8.0 | 0.00 | 0.00 | 0.00 | 85 | 1021.1 |
| 20260903190310 | 72 | 211 | 4.0 | 7.0 | 0.00 | 0.00 | 0.00 | 84 | 1021.2 |
| 20260903185310 | 73 | 238 | 5.0 | 8.0 | 0.00 | 0.00 | 0.00 | 84 | 1021.3 |
| 20260903184310 | 73 | 226 | 2.0 | 12.0 | 0.00 | 0.00 | 0.00 | 83 | 1021.2 |
| 20260903183310 | 73 | 278 | 6.0 | 12.0 | 0.00 | 0.00 | 0.00 | 83 | 1021.2 |
| 20260903182310 | 74 | 231 | 7.0 | 15.0 | 0.00 | 0.00 | 0.00 | 82 | 1021.3 |
| 20260903175310 | 74 | 218 | 5.0 | 11.0 | 0.00 | 0.00 | 0.00 | 81 | 1021.3 |
| 20260903174310 | 75 | 244 | 7.0 | 13.0 | 0.00 | 0.00 | 0.00 | 81 | 1021.3 |
| 20260903173310 | 75 | 222 | 5.0 | 13.0 | 0.00 | 0.00 | 0.00 | 81 | 1021.2 |
| 20260903172310 | 76 | 189 | 7.0 | 14.0 | 0.00 | 0.00 | 0.00 | 80 | 1021.3 |
| 20260903171310 | 76 | 235 | 8.0 | 17.0 | 0.00 | 0.00 | 0.00 | 80 | 1021.2 |
| 20260903170310 | 76 | 222 | 9.0 | 12.0 | 0.00 | 0.00 | 0.00 | 79 | 1021.2 |
| 20260903165310 | 77 | 279 | 8.0 | 14.0 | 0.00 | 0.00 | 0.00 | 78 | 1021.3 |
| 20260903164310 | 77 | 213 | 5.0 | 11.0 | 0.00 | 0.00 | 0.00 | 78 | 1021.3 |
| 20260903160310 | 78 | 226 | 5.0 | 10.0 | 0.00 | 0.00 | 0.00 | 76 | 1021.7 |
| 20260903155310 | 78 | 218 | 5.0 | 9.0 | 0.00 | 0.00 | 0.00 | 75 | 1021.6 |
| 20260903154310 | 78 | 221 | 3.0 | 11.0 | 0.00 | 0.00 | 0.00 | 74 | 1021.6 |
| 20260903152310 | 79 | 253 | 7.0 | 11.0 | 0.00 | 0.00 | 0.00 | 72 | 1021.8 |
| 20260903151310 | 79 | 272 | 5.0 | 8.0 | 0.00 | 0.00 | 0.00 | 73 | 1021.8 |
| 20260903150310 | 79 | 232 | 4.0 | 10.0 | 0.00 | 0.00 | 0.00 | 73 | 1021.8 |
| 20260903145310 | 79 | 220 | 4.0 | 10.0 | 0.00 | 0.00 | 0.00 | 73 | 1021.8 |
| 20260903144310 | 80 | 220 | 6.0 | 12.0 | 0.00 | 0.00 | 0.00 | 72 | 1021.7 |
| 20260903143310 | 80 | 243 | 6.0 | 11.0 | 0.00 | 0.00 | 0.00 | 72 | 1021.6 |
| 20260903141310 | 82 | 281 | 9.0 | 14.0 | 0.00 | 0.00 | 0.00 | 70 | 1021.8 |
| 20260903140310 | 82 | 230 | 8.0 | 15.0 | 0.00 | 0.00 | 0.00 | 70 | 1021.8 |
| 20260903135310 | 82 | 262 | 8.0 | 15.0 | 0.00 | 0.00 | 0.00 | 71 | 1021.8 |
| 20260903134310 | 81 | 234 | 5.0 | 10.0 | 0.00 | 0.00 | 0.00 | 72 | 1021.8 |
| 20260903133310 | 80 | 257 | 5.0 | 12.0 | 0.00 | 0.00 | 0.00 | 73 | 1021.9 |
| 20260903132310 | 80 | 228 | 8.0 | 13.0 | 0.00 | 0.00 | 0.00 | 73 | 1021.7 |
| 20260903131310 | 80 | 291 | 6.0 | 11.0 | 0.00 | 0.00 | 0.00 | 73 | 1021.8 |
| 20260903130310 | 80 | 228 | 5.0 | 11.0 | 0.00 | 0.00 | 0.00 | 74 | 1021.9 |
| 20260903125310 | 80 | 178 | 6.0 | 14.0 | 0.00 | 0.00 | 0.00 | 75 | 1021.8 |
| 20260903124310 | 80 | 300 | 8.0 | 15.0 | 0.00 | 0.00 | 0.00 | 74 | 1022.0 |
| 20260903122310 | 80 | 285 | 5.0 | 12.0 | 0.00 | 0.00 | 0.00 | 73 | 1022.1 |
| 20260903121310 | 80 | 245 | 5.0 | 14.0 | 0.00 | 0.00 | 0.00 | 74 | 1022.0 |
| 20260903120310 | 80 | 279 | 11.0 | 18.0 | 0.00 | 0.00 | 0.00 | 73 | 1022.1 |
| 20260903115310 | 80 | 264 | 8.0 | 12.0 | 0.00 | 0.00 | 0.00 | 74 | 1022.0 |
| 20260903114310 | 80 | 288 | 6.0 | 13.0 | 0.00 | 0.00 | 0.00 | 74 | 1022.1 |
| 20260903113310 | 80 | 213 | 8.0 | 14.0 | 0.00 | 0.00 | 0.00 | 74 | 1022.1 |
| 20260903112310 | 79 | 242 | 7.0 | 12.0 | 0.00 | 0.00 | 0.00 | 76 | 1022.1 |
| 20260903110310 | 77 | 218 | 8.0 | 14.0 | 0.00 | 0.00 | 0.00 | 78 | 1022.3 |
| 20260903105309 | 77 | 271 | 6.0 | 15.0 | 0.00 | 0.00 | 0.00 | 80 | 1022.4 |
| 20260903104309 | 76 | 252 | 7.0 | 12.0 | 0.00 | 0.00 | 0.00 | 81 | 1022.2 |
| 20260903102310 | 75 | 276 | 7.0 | 14.0 | 0.00 | 0.00 | 0.00 | 82 | 1022.3 |
| 20260903101309 | 74 | 290 | 10.0 | 14.0 | 0.00 | 0.00 | 0.00 | 83 | 1022.2 |
| 20260903095309 | 73 | 279 | 7.0 | 15.0 | 0.00 | 0.00 | 0.00 | 85 | 1022.2 |
| 20260903094309 | 72 | 271 | 7.0 | 17.0 | 0.00 | 0.00 | 0.00 | 85 | 1022.2 |
| 20260903093309 | 72 | 265 | 6.0 | 15.0 | 0.00 | 0.00 | 0.00 | 86 | 1022.3 |
| 20260903092309 | 71 | 279 | 10.0 | 16.0 | 0.00 | 0.00 | 0.00 | 86 | 1022.4 |
| 20260903091309 | 71 | 252 | 8.0 | 13.0 | 0.00 | 0.00 | 0.00 | 86 | 1022.2 |
| 20260903090309 | 71 | 272 | 9.0 | 19.0 | 0.00 | 0.00 | 0.00 | 87 | 1022.2 |
| 20260903085310 | 70 | 274 | 10.0 | 16.0 | 0.00 | 0.00 | 0.00 | 88 | 1022.1 |
| 20260903084309 | 70 | 230 | 10.0 | 20.0 | 0.00 | 0.00 | 0.00 | 88 | 1022.1 |
| 20260903083309 | 69 | 272 | 6.0 | 12.0 | 0.00 | 0.00 | 0.00 | 88 | 1022.1 |
| 20260903082309 | 69 | 264 | 7.0 | 18.0 | 0.00 | 0.00 | 0.00 | 89 | 1022.0 |
| 20260903081309 | 69 | 283 | 6.0 | 16.0 | 0.00 | 0.00 | 0.00 | 89 | 1022.1 |
| 20260903080310 | 69 | 269 | 6.0 | 13.0 | 0.00 | 0.00 | 0.00 | 89 | 1021.9 |
| 20260903075310 | 68 | 260 | 8.0 | 19.0 | 0.00 | 0.00 | 0.00 | 89 | 1021.9 |
| 20260903074311 | 68 | 272 | 9.0 | 14.0 | 0.00 | 0.00 | 0.00 | 89 | 1021.9 |
| 20260903073310 | 67 | 265 | 7.0 | 16.0 | 0.00 | 0.00 | 0.00 | 90 | 1021.8 |
| 20260903072309 | 67 | 276 | 7.0 | 14.0 | 0.00 | 0.00 | 0.00 | 89 | 1021.9 |
| 20260903071309 | 67 | 255 | 6.0 | 16.0 | 0.00 | 0.00 | 0.00 | 90 | 1021.8 |
| 20260903070309 | 67 | 255 | 6.0 | 12.0 | 0.00 | 0.00 | 0.00 | 90 | 1021.8 |
| 20260903065309 | 67 | 223 | 7.0 | 15.0 | 0.00 | 0.00 | 0.00 | 90 | 1021.6 |
| 20260903064309 | 66 | 279 | 5.0 | 12.0 | 0.00 | 0.00 | 0.00 | 90 | 1021.5 |
| 20260903063309 | 66 | 274 | 6.0 | 12.0 | 0.00 | 0.00 | 0.00 | 90 | 1021.5 |
| 20260903062309 | 66 | 219 | 6.0 | 12.0 | 0.00 | 0.00 | 0.00 | 90 | 1021.5 |
| 20260903061309 | 66 | 259 | 7.0 | 12.0 | 0.00 | 0.00 | 0.00 | 90 | 1021.4 |
| 20260903060309 | 66 | 225 | 5.0 | 12.0 | 0.00 | 0.00 | 0.00 | 90 | 1021.3 |
| 20260903055309 | 66 | 225 | 10.0 | 17.0 | 0.00 | 0.00 | 0.00 | 91 | 1021.4 |
| 20260903054309 | 66 | 216 | 7.0 | 12.0 | 0.00 | 0.00 | 0.00 | 91 | 1021.3 |
| 20260903053309 | 66 | 271 | 6.0 | 14.0 | 0.00 | 0.00 | 0.00 | 91 | 1021.1 |
| 20260903052310 | 65 | 248 | 7.0 | 17.0 | 0.00 | 0.00 | 0.00 | 91 | 1021.1 |
| 20260903051310 | 65 | 276 | 8.0 | 15.0 | 0.00 | 0.00 | 0.00 | 91 | 1021.1 |
| 20260903050310 | 65 | 216 | 7.0 | 11.0 | 0.00 | 0.00 | 0.00 | 91 | 1021.1 |
| 20260903045310 | 65 | 204 | 8.0 | 15.0 | 0.00 | 0.00 | 0.00 | 91 | 1021.2 |
| 20260903044310 | 65 | 258 | 5.0 | 11.0 | 0.00 | 0.00 | 0.00 | 91 | 1021.1 |
| 20260903041310 | 65 | 284 | 7.0 | 14.0 | 0.00 | 0.00 | 0.00 | 91 | 1021.3 |
| 20260903040310 | 65 | 238 | 7.0 | 11.0 | 0.00 | 0.00 | 0.00 | 92 | 1021.2 |
| 20260903034310 | 65 | 274 | 5.0 | 11.0 | 0.00 | 0.00 | 0.00 | 91 | 1021.2 |
| 20260903033310 | 65 | 274 | 4.0 | 10.0 | 0.00 | 0.00 | 0.00 | 92 | 1021.1 |
| 20260903032311 | 65 | 264 | 6.0 | 10.0 | 0.00 | 0.00 | 0.00 | 92 | 1021.1 |
| 20260903031311 | 65 | 219 | 5.0 | 12.0 | 0.00 | 0.00 | 0.00 | 92 | 1021.0 |
| 20260903030311 | 65 | 230 | 5.0 | 12.0 | 0.00 | 0.00 | 0.00 | 91 | 1021.0 |
| 20260903025310 | 65 | 264 | 4.0 | 11.0 | 0.00 | 0.00 | 0.00 | 91 | 1021.0 |
| 20260903023310 | 65 | 245 | 6.0 | 11.0 | 0.00 | 0.00 | 0.00 | 91 | 1021.1 |
| 20260903022310 | 65 | 246 | 4.0 | 11.0 | 0.00 | 0.00 | 0.00 | 91 | 1021.2 |
| 20260903021310 | 65 | 201 | 4.0 | 8.0 | 0.00 | 0.00 | 0.00 | 91 | 1021.2 |
| 20260903020309 | 65 | 218 | 5.0 | 9.0 | 0.00 | 0.00 | 0.00 | 91 | 1021.2 |
| 20260903015311 | 65 | 269 | 4.0 | 8.0 | 0.00 | 0.00 | 0.00 | 91 | 1021.5 |
| 20260903014310 | 65 | 239 | 4.0 | 9.0 | 0.00 | 0.00 | 0.00 | 91 | 1021.5 |
| 20260903013309 | 66 | 233 | 4.0 | 10.0 | 0.00 | 0.00 | 0.00 | 91 | 1021.6 |
| 20260903012309 | 66 | 274 | 4.0 | 9.0 | 0.00 | 0.00 | 0.00 | 91 | 1021.7 |
| 20260903011309 | 66 | 262 | 5.0 | 10.0 | 0.00 | 0.00 | 0.00 | 91 | 1021.8 |
| 20260903010310 | 66 | 308 | 5.0 | 11.0 | 0.00 | 0.00 | 0.00 | 91 | 1022.0 |
| 20260903004309 | 66 | 283 | 3.0 | 6.0 | 0.00 | 0.00 | 0.00 | 90 | 1021.6 |
| 20260903003309 | 66 | 248 | 5.0 | 7.0 | 0.00 | 0.00 | 0.00 | 90 | 1021.4 |
| 20260903002309 | 66 | 231 | 3.0 | 5.0 | 0.00 | 0.00 | 0.00 | 90 | 1021.7 |
| 20260903001309 | 66 | 274 | 3.0 | 5.0 | 0.00 | 0.00 | 0.00 | 90 | 1021.7 |
| 20260903000310 | 66 | 271 | 4.0 | 7.0 | 0.00 | 0.00 | 0.00 | 90 | 1021.9 |
| 20260902235311 | 66 | 264 | 5.0 | 9.0 | 0.00 | 0.00 | 0.00 | 90 | 1021.9 |